Stations météo

réclame
Mon MeteoGroup
Leck, Allemagne (10022): Température de l'air & dewpoint: 12.06.2018 13:00:00 - 18.06.2018 13:00:00 (CEST)Leck, Allemagne (10022): Température de l'air 5cm & Température de l'air -5cm: 12.06.2018 13:00:00 - 18.06.2018 13:00:00 (CEST)Leck, Allemagne (10022): Température de l'air -20cm & Température de l'air -100cm: 12.06.2018 13:00:00 - 18.06.2018 13:00:00 (CEST)Leck, Allemagne (10022): Vitesse du vent & gusts: 12.06.2018 13:00:00 - 18.06.2018 13:00:00 (CEST)Leck, Allemagne (10022): Direction du vent: 12.06.2018 13:00:00 - 18.06.2018 13:00:00 (CEST)Leck, Allemagne (10022): reduced air pressure: 12.06.2018 13:00:00 - 18.06.2018 13:00:00 (CEST)Leck, Allemagne (10022): visibility: 12.06.2018 13:00:00 - 18.06.2018 13:00:00 (CEST)Leck, Allemagne (10022): Ensoleillement: 12.06.2018 13:00:00 - 18.06.2018 13:00:00 (CEST)Leck, Allemagne (10022): Quantités de précipitations: 12.06.2018 13:00:00 - 18.06.2018 13:00:00 (CEST)
Date & Time tt [°C] td [°C] tt 5cm [°C] tt -5cm [°C] tt -20cm [°C] tt -100cm [°C] ff [km/h] ff [knt] fx [km/h] fx [knt] dd ppp [hPa] vv [km] sd [min] rr [mm]
18.06.2018 13:00:00 16,4 13,4 17,0 19,0 17,3 14,9 26 14 41 22 SSW 1016,7 - 0 0,0
18.06.2018 12:00:00 16,3 12,9 17,0 19,5 17,1 14,9 24 13 38 21 SSW 1016,6 - 0 0,0
18.06.2018 11:00:00 16,7 12,7 18,1 19,9 16,9 14,9 26 14 42 23 SSW 1016,4 - 10 0,0
18.06.2018 10:00:00 16,5 12,8 18,3 18,1 16,8 14,9 21 11 35 19 SW 1016,7 - 0 0,0
18.06.2018 09:00:00 16,0 13,0 16,7 16,6 16,8 14,9 19 10 31 17 SSW 1016,5 - 0 0,0
18.06.2018 08:00:00 15,6 12,3 16,0 15,8 16,9 14,9 15 8 27 15 SSW 1016,5 18 10 0,1
18.06.2018 07:00:00 14,9 12,4 14,3 14,6 17,1 14,9 11 6 18 10 S 1016,4 - 60 0,0
18.06.2018 06:00:00 11,7 10,7 10,7 13,2 17,4 14,9 6 4 11 6 SSW 1016,7 - 4 0,0
18.06.2018 05:00:00 10,6 10,2 8,4 13,3 17,7 14,9 8 4 11 6 S 1016,7 - 0 0,0
18.06.2018 04:00:00 11,0 10,6 8,3 13,8 18,0 14,9 7 4 10 5 S 1016,8 - 0 0,0
18.06.2018 03:00:00 11,3 10,7 8,7 14,6 18,4 14,9 6 4 10 5 SSW 1016,8 - 0 0,0
18.06.2018 02:00:00 11,3 10,7 8,9 15,1 18,7 14,9 5 3 9 5 SSW 1017,0 - 0 0,0
18.06.2018 01:00:00 12,6 11,2 10,5 15,9 19,0 14,9 8 5 16 8 SW 1016,9 - 0 0,0
18.06.2018 00:00:00 13,5 11,4 11,9 16,8 19,3 14,9 11 6 19 10 WSW 1016,8 - 0 0,0
17.06.2018 23:00:00 13,7 11,4 12,6 17,6 19,6 14,9 13 7 17 9 SW 1016,6 - 0 0,0
17.06.2018 22:00:00 14,2 11,2 13,0 18,8 19,9 14,9 13 7 23 12 WSW 1016,4 - 5 0,0
17.06.2018 21:00:00 15,0 10,9 14,4 20,4 20,0 14,9 16 9 29 16 WSW 1016,3 - 15 0,0
17.06.2018 20:00:00 16,0 10,9 16,6 22,3 20,0 14,9 19 10 40 21 WSW 1016,1 - 34 0,0
17.06.2018 19:00:00 16,9 9,4 18,4 24,5 19,8 14,9 24 13 40 22 W 1015,6 - 58 0,0
17.06.2018 18:00:00 18,2 9,1 21,5 25,9 19,5 14,9 23 12 41 22 W 1015,3 - 60 0,0
17.06.2018 17:00:00 18,3 9,3 22,2 26,5 19,1 14,9 26 14 45 25 W 1015,1 - 58 0,0
17.06.2018 16:00:00 18,4 9,8 22,7 26,5 18,6 14,9 29 16 48 26 W 1014,7 - 54 0,0
17.06.2018 15:00:00 18,5 10,2 22,8 26,5 18,0 14,9 29 16 45 24 W 1014,2 - 58 0,0
17.06.2018 14:00:00 19,1 11,3 23,7 25,4 17,5 14,9 30 16 41 22 W 1013,7 - 39 0,0
17.06.2018 13:00:00 18,1 10,5 21,6 23,3 17,1 14,9 27 15 39 21 WSW 1013,2 - 18 0,0
17.06.2018 12:00:00 16,8 11,5 18,7 22,2 16,8 14,9 24 13 49 27 WSW 1012,9 - 26 0,0
17.06.2018 11:00:00 17,1 13,1 20,3 19,3 16,6 14,9 30 16 48 26 SW 1012,3 - 8 0,0
17.06.2018 10:00:00 17,2 13,2 19,5 19,1 16,4 14,9 23 13 41 22 SSW 1012,1 - 21 0,0
17.06.2018 09:00:00 16,7 12,7 18,5 17,8 16,4 14,9 23 12 38 21 SW 1011,9 - 46 0,0
17.06.2018 08:00:00 16,3 12,5 17,1 16,1 16,4 14,9 19 10 31 17 SW 1011,8 - 58 0,0
17.06.2018 07:00:00 15,0 11,6 14,7 14,4 16,6 14,9 13 7 22 12 SSW 1012,0 - 31 0,0
17.06.2018 06:00:00 13,3 12,0 12,5 13,7 16,8 15,0 9 5 14 7 S 1012,1 - 0 0,0
17.06.2018 05:00:00 12,1 11,8 9,9 13,7 17,0 15,0 8 5 11 6 S 1012,3 - 0 0,0
17.06.2018 04:00:00 13,5 13,1 12,0 14,9 17,2 14,9 8 4 15 8 S 1012,4 - 0 0,0
17.06.2018 03:00:00 14,5 13,8 13,7 15,3 17,4 14,9 11 6 16 9 S 1012,7 - 0 0,0
17.06.2018 02:00:00 14,7 13,1 13,8 15,3 17,6 14,9 10 5 15 8 S 1013,0 - 0 0,0
17.06.2018 01:00:00 14,1 13,4 13,2 15,5 17,8 14,9 8 4 9 5 S 1012,6 - 0 0,0
17.06.2018 00:00:00 14,0 13,5 12,7 15,7 18,1 14,9 5 3 8 4 S 1012,9 - 0 0,0
16.06.2018 23:00:00 14,6 13,9 12,2 16,4 18,2 14,9 6 3 14 7 S 1012,9 - 0 0,0
16.06.2018 22:00:00 16,5 14,8 15,4 17,9 18,4 14,9 8 4 14 8 SW 1013,0 - 0 0,0
16.06.2018 21:00:00 17,6 15,0 16,9 19,0 18,4 14,9 7 4 12 6 SW 1012,7 - 0 0,0
16.06.2018 20:00:00 18,4 14,7 18,7 19,9 18,4 14,9 7 4 11 6 SSW 1012,6 - 10 0,0
16.06.2018 19:00:00 18,1 15,6 18,2 19,9 18,4 14,9 6 3 10 5 SW 1012,6 - 0 0,0
16.06.2018 18:00:00 17,9 16,2 17,4 20,4 18,3 14,9 8 4 14 8 WSW 1012,8 - 0 0,6
16.06.2018 17:00:00 19,3 16,1 18,6 22,1 18,0 14,9 4 2 10 6 S 1013,1 - 0 0,1
16.06.2018 16:00:00 19,7 16,0 21,5 22,9 17,7 14,9 8 4 16 9 E 1013,3 - 0 0,0
16.06.2018 15:00:00 19,1 15,0 22,1 22,3 17,5 14,9 13 7 24 13 E 1013,3 - 7 0,0
16.06.2018 14:00:00 18,6 14,7 21,5 20,5 17,4 14,9 18 10 26 14 E 1013,6 - 1 0,0
16.06.2018 13:00:00 16,0 14,5 16,2 17,8 17,4 14,9 10 6 20 11 ESE 1014,5 - 0 0,0
16.06.2018 12:00:00 16,1 14,2 15,7 17,5 17,3 14,9 16 9 24 13 E 1014,6 - 0 1,0
16.06.2018 11:00:00 16,5 12,2 15,4 18,5 17,3 14,9 13 7 24 13 ESE 1015,0 - 0 0,0
16.06.2018 10:00:00 17,7 11,2 18,4 18,3 17,3 14,9 14 8 24 13 ESE 1015,0 - 0 0,0
16.06.2018 09:00:00 16,4 10,6 17,4 16,7 17,3 14,9 9 5 13 7 E 1015,1 - 0 0,0
16.06.2018 08:00:00 14,8 11,0 14,9 15,9 17,5 14,9 10 5 14 8 E 1015,3 - 0 0,0
16.06.2018 07:00:00 13,8 10,4 13,6 15,4 17,7 14,9 10 5 13 7 ENE 1015,6 - 0 0,0
16.06.2018 06:00:00 13,7 9,9 12,9 15,0 17,9 14,9 10 5 12 6 E 1015,9 - 0 0,0
16.06.2018 05:00:00 11,8 9,9 10,8 15,0 18,2 14,9 8 5 11 6 E 1016,3 - 0 0,0
16.06.2018 04:00:00 12,1 9,6 9,6 15,6 18,5 14,9 6 3 8 4 ENE 1016,7 - 0 0,0
16.06.2018 03:00:00 12,5 9,6 10,9 16,3 18,8 14,9 3 2 6 4 ENE 1016,9 - 0 0,0
16.06.2018 02:00:00 13,3 9,7 12,5 16,8 19,1 14,9 5 3 7 4 ENE 1017,1 - 0 0,0
16.06.2018 01:00:00 13,1 10,3 12,7 17,0 19,4 14,9 6 3 8 4 E 1017,2 - 0 0,0
16.06.2018 00:00:00 12,1 8,7 11,4 17,2 19,8 14,9 3 1 6 4 E 1017,1 - 0 0,0
15.06.2018 23:00:00 12,1 9,2 8,8 18,1 20,1 14,9 3 2 5 3 E 1017,1 - 0 0,0
15.06.2018 22:00:00 14,5 8,8 10,8 19,9 20,3 14,9 4 2 5 3 N 1017,1 39 0 0,0
15.06.2018 21:00:00 16,5 8,2 14,6 22,0 20,4 14,9 6 3 9 5 WNW 1017,3 - 35 0,0
15.06.2018 20:00:00 18,6 5,8 19,4 24,3 20,3 14,9 6 3 14 7 WNW 1017,2 - 60 0,0
15.06.2018 19:00:00 18,8 6,1 21,7 25,9 20,1 14,9 8 4 20 11 W 1017,4 - 60 0,0
15.06.2018 18:00:00 19,2 7,4 22,7 26,9 19,7 15,0 15 8 30 16 SW 1017,5 7 60 0,0
15.06.2018 17:00:00 19,0 7,9 23,1 27,6 19,2 15,0 17 9 31 17 WSW 1017,8 9 59 0,0
15.06.2018 16:00:00 19,1 8,2 23,5 28,1 18,6 15,0 20 11 42 23 SW 1017,9 - 59 0,0
15.06.2018 15:00:00 19,7 8,7 24,9 27,3 18,0 15,0 19 10 33 18 SW 1017,7 - 51 0,0
15.06.2018 14:00:00 18,9 8,3 23,3 26,9 17,3 15,0 21 11 36 19 WSW 1017,5 2,1 47 0,0
15.06.2018 13:00:00 18,6 7,6 22,5 26,4 16,6 15,0 19 11 31 17 WSW 1017,3 5 56 0,0
15.06.2018 12:00:00 18,5 7,1 23,6 24,0 16,1 15,0 18 10 31 17 SW 1017,1 7 56 0,0
15.06.2018 11:00:00 18,2 8,1 21,8 20,9 15,7 15,0 13 7 25 13 SW 1016,9 - 51 0,0
15.06.2018 10:00:00 17,2 10,0 20,2 19,0 15,4 15,0 15 8 23 13 WSW 1016,7 - 58 0,0
15.06.2018 09:00:00 16,0 10,8 17,8 16,7 15,2 15,0 12 6 21 11 W 1016,3 - 55 0,0
15.06.2018 08:00:00 15,2 11,1 16,4 14,7 15,3 15,0 9 5 13 7 WSW 1015,9 - 60 0,0
15.06.2018 07:00:00 12,2 10,0 12,1 11,9 15,5 15,0 5 3 7 4 SW 1015,4 - 60 0,0
15.06.2018 06:00:00 9,0 8,4 6,9 10,3 15,8 15,0 4 2 6 3 SSW 1015,1 - 7 0,0
15.06.2018 05:00:00 8,6 8,4 4,3 10,7 16,2 15,0 4 2 7 4 S 1014,5 - 0 0,0
15.06.2018 04:00:00 10,2 9,4 5,5 11,5 16,5 15,0 5 3 13 7 W 1013,9 - 0 0,0
15.06.2018 03:00:00 11,9 9,5 9,6 12,3 16,8 15,0 11 6 16 9 WSW 1013,9 - 0 0,0
15.06.2018 02:00:00 12,2 10,1 10,2 13,0 17,1 15,0 12 6 18 10 W 1013,6 - 0 0,0
15.06.2018 01:00:00 13,0 11,7 11,2 13,9 17,4 15,0 11 6 21 12 W 1013,3 - 0 0,0
15.06.2018 00:00:00 13,8 13,0 12,4 14,6 17,7 15,0 15 8 26 14 W 1012,9 - 0 0,0
14.06.2018 23:00:00 14,2 13,4 13,0 15,5 17,9 15,0 15 8 30 16 WSW 1012,3 - 0 0,0
14.06.2018 22:00:00 15,0 13,9 14,2 16,2 18,2 15,0 19 11 37 20 WSW 1011,9 - 0 0,0
14.06.2018 21:00:00 14,7 14,4 14,4 16,5 18,4 15,0 22 12 49 27 SW 1011,5 - 0 1,6
14.06.2018 20:00:00 14,9 13,8 14,2 17,2 18,7 15,1 34 18 48 26 SSW 1011,0 - 0 0,3
14.06.2018 19:00:00 15,0 13,7 14,4 17,8 18,9 15,1 26 14 44 24 SSW 1011,2 - 0 0,7
14.06.2018 18:00:00 15,1 13,4 14,4 18,8 19,0 15,1 26 14 43 23 SSW 1011,2 - 0 1,7
14.06.2018 17:00:00 16,7 12,2 15,0 21,4 18,9 15,1 25 13 59 32 SW 1010,9 - 0 0,0
14.06.2018 16:00:00 20,0 9,4 21,0 24,4 18,6 15,1 38 21 60 32 SSW 1010,5 - 1 0,0
14.06.2018 15:00:00 20,4 9,3 23,0 25,3 18,2 15,1 41 22 63 34 SSW 1010,6 - 5 0,0
14.06.2018 14:00:00 20,4 9,5 23,8 25,9 17,7 15,1 41 22 58 31 SSW 1010,8 - 46 0,0
14.06.2018 13:00:00 20,4 10,1 24,9 25,5 17,2 15,1 36 19 52 28 SSW 1011,2 - 60 0,0
14.06.2018 12:00:00 19,3 11,1 23,4 23,8 16,8 15,1 34 18 50 27 SSW 1011,5 - 60 0,0
14.06.2018 11:00:00 18,9 11,5 22,3 21,0 16,5 15,1 31 17 46 25 SSW 1011,7 - 26 0,0
14.06.2018 10:00:00 18,0 10,7 21,4 19,8 16,3 15,1 34 18 46 25 SSW 1011,7 - 38 0,0
14.06.2018 09:00:00 17,1 11,2 19,8 17,2 16,2 15,1 31 17 46 25 SSW 1011,7 2,6 8 0,0
14.06.2018 08:00:00 15,7 10,8 16,0 15,8 16,3 15,1 24 13 - - SSW 1012,0 13 0 0,0
14.06.2018 07:00:00 15,0 11,2 14,7 15,1 16,3 15,2 20 11 29 16 SSW 1012,3 - 0 0,0
14.06.2018 06:00:00 14,1 11,1 13,4 14,4 16,5 15,2 14 7 24 13 SSW 1012,7 - 0 0,0
14.06.2018 05:00:00 13,6 10,6 12,8 14,2 16,6 15,2 11 6 21 12 SSW 1012,9 - 0 0,0
14.06.2018 04:00:00 13,3 10,7 12,3 14,5 16,8 15,2 13 7 24 13 SW 1013,4 - 0 0,0
14.06.2018 03:00:00 13,9 9,9 13,3 14,8 16,9 15,2 11 6 23 12 SW 1013,5 - 0 0,0
14.06.2018 02:00:00 12,8 9,3 12,4 14,7 17,1 15,2 7 4 13 7 SW 1013,9 - 0 0,0
14.06.2018 01:00:00 12,6 8,7 12,0 14,8 17,3 15,2 10 6 15 8 SW 1013,9 - 0 0,0
14.06.2018 00:00:00 12,1 8,7 11,4 15,0 17,6 15,2 7 4 14 8 SW 1014,2 - 0 0,0
13.06.2018 23:00:00 12,7 8,1 12,1 15,6 17,8 15,2 10 5 16 9 WSW 1014,4 - 0 0,0
13.06.2018 22:00:00 13,0 8,5 12,2 16,6 17,9 15,2 9 5 26 14 W 1014,2 - 0 0,0
13.06.2018 21:00:00 13,5 8,4 13,4 17,5 18,0 15,3 19 10 34 18 WNW 1014,0 - 0 0,0
13.06.2018 20:00:00 13,8 8,9 14,0 18,8 18,0 15,3 22 12 37 20 WNW 1013,8 - 5 0,0
13.06.2018 19:00:00 14,5 8,5 15,5 20,1 17,9 15,3 27 14 38 21 WNW 1013,4 17 13 0,0
13.06.2018 18:00:00 15,6 8,2 18,8 21,4 17,7 15,3 29 16 42 23 WNW 1013,3 1,4 26 0,0
13.06.2018 17:00:00 15,5 9,1 17,3 21,8 17,4 15,3 29 16 43 23 W 1013,1 - 17 0,0
13.06.2018 16:00:00 16,9 8,1 21,9 21,4 17,2 15,3 31 17 42 23 WNW 1012,8 4,1 26 0,0
13.06.2018 15:00:00 15,3 7,4 17,0 20,1 17,0 15,3 29 15 44 24 WNW 1012,9 5 3 0,0
13.06.2018 14:00:00 15,0 9,0 16,9 20,0 16,8 15,3 29 16 44 24 WNW 1012,9 7 0 0,0
13.06.2018 13:00:00 15,2 8,9 17,7 20,2 16,5 15,3 27 15 41 22 WNW 1012,6 3,0 3 0,0
13.06.2018 12:00:00 15,3 9,2 18,7 20,1 16,3 15,4 30 16 42 23 WNW 1012,4 2,8 18 0,0
13.06.2018 11:00:00 14,5 8,8 16,0 17,7 16,1 15,4 28 15 40 21 WNW 1012,3 - 4 0,0
13.06.2018 10:00:00 14,4 9,3 15,6 17,2 16,0 15,4 22 12 50 27 WNW 1011,8 10 12 0,0
13.06.2018 09:00:00 14,3 7,9 15,2 16,7 16,0 15,4 27 15 48 26 NW 1011,6 4,5 48 0,0
13.06.2018 08:00:00 13,2 7,9 13,4 14,6 16,0 15,4 26 14 45 24 NW 1011,4 16 5 0,0
13.06.2018 07:00:00 13,2 8,4 13,0 14,2 16,1 15,4 25 13 41 22 NW 1011,3 14 4 0,0
13.06.2018 06:00:00 13,0 8,7 12,7 14,0 16,2 15,4 21 11 38 20 NW 1011,2 27 0 0,0
13.06.2018 05:00:00 13,0 8,4 12,4 14,0 16,3 15,4 21 11 32 17 NW 1011,1 37 0 0,0
13.06.2018 04:00:00 13,1 8,9 12,7 14,1 16,5 15,4 18 10 31 17 NW 1010,9 - 0 0,0
13.06.2018 03:00:00 13,0 8,8 12,5 14,2 16,6 15,5 16 8 31 17 NW 1010,9 - 0 0,0
13.06.2018 02:00:00 13,0 9,3 12,5 14,3 16,8 15,5 21 11 31 17 NW 1010,9 - 0 0,0
13.06.2018 01:00:00 12,6 10,3 12,2 14,4 16,9 15,5 12 7 33 18 NW 1011,0 - 0 0,0
13.06.2018 00:00:00 12,4 11,0 11,8 14,6 17,1 15,5 11 6 26 14 NW 1011,1 - 0 0,0
12.06.2018 23:00:00 12,3 10,8 11,7 14,9 17,3 15,5 14 7 32 17 WNW 1010,9 - 0 0,1
12.06.2018 22:00:00 12,7 10,5 12,1 15,3 17,4 15,5 19 11 30 16 WNW 1010,8 - 0 0,0
12.06.2018 21:00:00 12,6 10,6 12,0 15,7 17,6 15,5 19 10 37 20 WNW 1010,6 17 0 0,0
12.06.2018 20:00:00 12,6 11,0 12,1 16,6 17,7 15,5 16 9 33 18 NW 1010,6 - 0 0,0
12.06.2018 19:00:00 13,5 10,2 13,9 17,3 17,7 15,5 20 11 34 18 WNW 1010,7 - 0 0,0
12.06.2018 18:00:00 13,8 10,3 14,5 18,0 17,7 15,5 22 12 39 21 WNW 1010,9 - 0 0,0
12.06.2018 17:00:00 14,2 11,0 15,7 18,3 17,6 15,5 24 13 40 22 WNW 1010,9 - 0 0,0
12.06.2018 16:00:00 13,4 11,3 13,6 19,1 17,5 15,6 24 13 39 21 WNW 1011,0 - 1 0,0
12.06.2018 15:00:00 15,3 10,7 17,5 19,1 17,4 15,6 19 11 41 22 NW 1011,0 - 0 0,0
12.06.2018 14:00:00 14,7 9,7 16,1 19,1 17,2 15,6 24 13 39 21 WNW 1010,8 - 0 0,0
12.06.2018 13:00:00 15,4 10,3 18,2 19,3 17,1 15,6 22 12 37 20 WNW 1010,6 - 3 0,0

tt = Température de l'air
td = dewpoint
tt 5cm = Température de l'air 5cm
tt -5cm = Température de l'air -5cm
tt -20cm = Température de l'air -20cm
tt -100cm = Température de l'air -100cm
ff = Vitesse du vent
fx = gusts
dd = Direction du vent
ppp = reduced air pressure
vv = visibility
sd = Ensoleillement
rr = Quantités de précipitations

stations d'obs. à proximité